Location: Brno
(49.2000°N, 16.6330°E)
Time: 14:21:30
(UTC+02:00)

ISS - Pass Details

Date: 25 April 2026
Orbit: 414 x 424 km, 51.6° (Epoch: 18 May)

Event Time Altitude Azimuth Distance (km) Brightness Sun altitude
Exits shadow 04:44:55 12° 255° (WSW) 1,360 -1.8 -9.3°
Maximum altitude 04:47:57 80° 343° (NNW) 431 -3.7 -8.9°
Drops below altitude 10° 04:51:21 10° 71° (ENE) 1,509 0.6 -8.4°
Sets 04:53:27 0° 72° (ENE) 2,377 2.0 -8.1°
